EW2145 Weather Reports


Display with metric or nautical units.
time (UTC)temp
F
wind
direction
speed
MPH
gust
MPH
rain 1hr
in
rain 24hr
in
rain mn
in
humidity
%
barometer
mb
20260507105049 40 23 2.0 3.0 0.00 0.14 0.00 99 1013.2
20260507104548 39 5 1.0 3.0 0.00 0.14 0.00 99 1013.2
20260507104049 39 37 0.0 2.0 0.00 0.15 0.00 95 1013.2
20260507103549 39 355 2.0 2.0 0.00 0.15 0.00 94 1013.0
20260507103047 39 40 0.0 4.0 0.00 0.15 0.00 94 1013.0
20260507103038 38 52 1.0 4.0 0.00 0.16 0.00 94 1013.1
20260507102047 38 338 2.0 5.0 0.00 0.16 0.00 95 1013.1
20260507101547 38 344 2.0 5.0 0.00 0.17 0.00 98 1013.0
20260507101047 38 341 0.0 2.0 0.00 0.17 0.00 99 1013.1
20260507100547 38 18 2.0 2.0 0.00 0.18 0.00 98 1013.0
20260507100046 38 23 0.0 2.0 0.00 0.18 0.00 99 1013.1
20260507095546 38 312 2.0 3.0 0.00 0.19 0.00 99 1012.8
20260507095306 38 200 0.0 3.0 0.00 0.20 0.00 99 1012.8
20260507094547 38 3 2.0 2.0 0.00 0.20 0.00 99 1012.9
20260507094312 38 159 1.0 2.0 0.00 0.21 0.00 92 1012.9
20260507093815 38 183 2.0 3.0 0.00 0.22 0.00 93 1013.0
20260507093045 38 218 0.0 3.0 0.00 0.23 0.00 93 1012.9
20260507092545 38 207 0.0 3.0 0.00 0.24 0.00 95 1012.6
20260507092045 38 179 2.0 3.0 0.00 0.24 0.00 99 1012.8
20260507091545 38 180 2.0 3.0 0.00 0.25 0.00 98 1013.0
20260507091044 38 200 2.0 3.0 0.00 0.26 0.00 98 1013.0
20260507090544 38 144 2.0 3.0 0.00 0.28 0.00 99 1013.0
20260507090044 38 235 0.0 3.0 0.00 0.29 0.00 99 1013.0
20260507085808 38 175 2.0 3.0 0.00 0.29 0.00 98 1012.8
20260507085043 38 161 1.0 3.0 0.00 0.30 0.00 99 1012.9
20260507084543 37 160 0.0 1.0 0.00 0.30 0.00 91 1013.1
20260507084043 37 147 0.0 1.0 0.00 0.31 0.00 90 1012.9
20260507083544 37 147 0.0 2.0 0.00 0.31 0.00 92 1013.0
20260507083043 38 230 0.0 2.0 0.00 0.31 0.00 94 1012.9
20260507082542 37 303 1.0 2.0 0.00 0.32 0.00 99 1013.0
20260507082042 38 135 0.0 2.0 0.00 0.32 0.00 99 1012.9
20260507081542 38 230 0.0 2.0 0.00 0.32 0.00 99 1012.8
20260507081042 38 252 0.0 2.0 0.00 0.33 0.00 94 1013.0
20260507080542 38 95 1.0 2.0 0.00 0.33 0.00 99 1012.9
20260507080306 38 120 0.0 1.0 0.00 0.33 0.00 92 1012.8
20260507075542 38 296 0.0 0.0 0.00 0.34 0.00 92 1012.8
20260507075042 38 296 0.0 2.0 0.00 0.35 0.00 93 1013.0
20260507074749 38 307 0.0 2.0 0.00 0.35 0.00 99 1013.0
20260507074639 38 296 0.0 2.0 0.00 0.35 0.00 95 1012.6
20260507073541 38 124 0.0 2.0 0.00 0.35 0.00 98 1012.5
20260507073259 38 124 0.0 2.0 0.00 0.36 0.00 98 1012.8
20260507072800 39 149 2.0 2.0 0.00 0.37 0.00 99 1012.9
20260507072040 39 145 2.0 2.0 0.00 0.37 0.00 98 1013.0
20260507071540 39 129 1.0 1.0 0.00 0.39 0.00 93 1012.9
20260507071039 39 129 0.0 0.0 0.00 0.40 0.00 93 1013.0
20260507070540 39 129 0.0 0.0 0.00 0.41 0.00 94 1013.0
20260507070040 40 129 0.0 1.0 0.00 0.43 0.00 99 1013.2
20260507065539 40 130 0.0 1.0 0.00 0.44 0.00 98 1013.1
20260507065039 40 157 0.0 1.0 0.00 0.44 0.00 98 1013.1
20260507064539 40 164 0.0 1.0 0.00 0.45 0.00 97 1013.3
20260507064038 40 173 0.0 2.0 0.00 0.46 0.00 97 1013.2
20260507063538 41 193 0.0 2.0 0.00 0.48 0.00 97 1013.2
20260507063258 41 161 0.0 2.0 0.00 0.48 0.00 97 1013.1
20260507062538 41 189 1.0 3.0 0.00 0.48 0.00 97 1013.0
20260507062037 41 197 1.0 3.0 0.00 0.49 0.00 97 1013.1
20260507061537 41 226 2.0 3.0 0.00 0.50 0.00 97 1013.2
20260507061037 41 170 1.0 3.0 0.00 0.50 0.00 97 1013.0
20260507060537 41 189 3.0 3.0 0.00 0.52 0.00 97 1013.4
20260507060037 41 212 1.0 2.0 0.00 0.52 0.00 97 1013.3
20260507055537 41 212 0.0 2.0 0.00 0.53 0.00 96 1013.2
20260507055037 41 151 1.0 2.0 0.00 0.54 0.00 96 1013.1
20260507054536 41 125 0.0 2.0 0.00 0.55 0.00 96 1013.3
20260507054036 41 129 1.0 2.0 0.00 0.56 0.00 95 1013.4
20260507053536 42 130 0.0 2.0 0.00 0.58 0.00 95 1013.6
20260507053036 42 212 0.0 2.0 0.00 0.60 0.00 95 1013.8
20260507052535 42 175 1.0 2.0 0.00 0.62 0.00 95 1013.9
20260507052035 42 191 2.0 2.0 0.00 0.63 0.00 95 1013.7
20260507051535 42 113 0.0 3.0 0.00 0.64 0.00 94 1013.6
20260507051252 42 276 0.0 3.0 0.00 0.65 0.00 94 1013.9
20260507050535 42 179 3.0 4.0 0.00 0.65 0.00 94 1013.9
20260507050035 42 183 1.0 4.0 0.00 0.66 0.00 94 1013.8
20260507045534 42 160 1.0 4.0 0.00 0.67 0.00 94 1013.8
20260507045255 42 102 2.0 3.0 0.00 0.67 0.00 94 1013.9
20260507044756 42 224 1.0 3.0 0.00 0.68 0.00 94 1013.8
20260507044250 42 141 0.0 3.0 0.00 0.68 0.00 94 1014.0
20260507043533 42 291 0.0 2.0 0.00 0.69 0.00 94 1014.0
20260507043033 42 37 0.0 3.0 0.00 0.69 0.00 94 1013.8
20260507042533 42 37 0.0 4.0 0.00 0.70 0.00 93 1013.8
20260507042033 42 185 0.0 4.0 0.00 0.70 0.00 92 1013.8
20260507041754 42 129 0.0 4.0 0.00 0.71 0.00 92 1013.7
20260507041258 42 188 1.0 4.0 0.00 0.72 0.00 91 1013.6
20260507040532 42 192 3.0 5.0 0.00 0.74 0.00 92 1013.7
20260507040031 42 198 1.0 6.0 0.00 0.74 0.00 92 1014.0
20260507035531 42 186 3.0 6.0 0.00 0.75 0.74 93 1013.7
20260507035031 42 278 3.0 4.0 0.00 0.76 0.74 94 1013.8
20260507034755 42 224 0.0 3.0 0.00 0.77 0.74 94 1013.9
20260507034031 42 338 2.0 4.0 0.00 0.78 0.74 94 1013.7
20260507033530 42 3 1.0 4.0 0.00 0.78 0.74 94 1013.5
20260507033252 42 244 1.0 5.0 0.00 0.79 0.74 93 1013.6
20260507032530 42 158 2.0 5.0 0.00 0.79 0.74 93 1013.6
20260507032253 42 140 0.0 4.0 0.00 0.80 0.74 94 1013.6
20260507031530 42 207 3.0 4.0 0.00 0.81 0.74 94 1013.6
20260507031030 42 177 2.0 4.0 0.00 0.81 0.74 94 1013.6
20260507030530 42 235 0.0 4.0 0.00 0.82 0.74 93 1013.5
20260507030029 42 212 2.0 4.0 0.00 0.83 0.74 94 1013.5
20260507025529 42 186 0.0 4.0 0.00 0.83 0.74 94 1013.4
20260507025029 43 89 0.0 4.0 0.00 0.83 0.74 93 1013.5
20260507024529 42 164 2.0 4.0 0.00 0.83 0.74 94 1013.5
20260507024029 42 200 1.0 4.0 0.00 0.83 0.74 94 1013.6
20260507023528 42 143 1.0 4.0 0.00 0.84 0.74 94 1013.3
20260507023253 42 208 2.0 4.0 0.00 0.84 0.74 94 1013.5
20260507022528 42 187 2.0 4.0 0.00 0.84 0.74 94 1013.5
20260507022028 42 190 2.0 3.0 0.00 0.84 0.74 94 1013.5
20260507021527 42 187 2.0 4.0 0.00 0.84 0.74 94 1013.5
20260507021027 42 140 1.0 5.0 0.00 0.84 0.74 94 1013.8
20260507020751 42 196 2.0 5.0 0.00 0.84 0.74 94 1013.7
20260507020026 42 197 3.0 6.0 0.00 0.84 0.74 94 1013.7
20260507015526 42 191 2.0 8.0 0.00 0.84 0.74 94 1013.6
20260507015026 42 212 4.0 8.0 0.00 0.84 0.74 94 1013.8
20260507014526 42 184 2.0 4.0 0.00 0.84 0.74 94 1013.8
20260507014026 42 161 1.0 4.0 0.00 0.84 0.74 94 1013.7
20260507013526 42 157 0.0 3.0 0.00 0.85 0.74 95 1013.7
20260507013025 42 129 0.0 3.0 0.00 0.85 0.74 95 1013.5
20260507012526 42 176 2.0 4.0 0.00 0.85 0.74 95 1013.4
20260507012025 42 177 2.0 5.0 0.00 0.85 0.74 95 1013.2
20260507011525 42 204 2.0 5.0 0.00 0.85 0.74 95 1013.4
20260507011024 42 50 0.0 4.0 0.00 0.86 0.74 95 1013.0
20260507010525 42 285 2.0 4.0 0.00 0.87 0.74 95 1013.5
20260507010024 42 316 3.0 5.0 0.00 0.87 0.74 95 1013.3
20260507005524 42 294 1.0 5.0 0.00 0.88 0.74 96 1013.4
20260507005024 42 212 4.0 5.0 0.00 0.88 0.74 96 1013.5
20260507004524 42 357 1.0 6.0 0.00 0.88 0.74 96 1013.4
20260507004024 42 318 3.0 10.0 0.00 0.89 0.74 96 1013.3
20260507003523 42 329 2.0 10.0 0.00 0.89 0.74 96 1013.2
20260507003244 42 335 2.0 10.0 0.00 0.89 0.74 96 1013.1
20260507003004 42 338 4.0 9.0 0.00 0.89 0.74 95 1013.2
20260507002023 42 297 6.0 9.0 0.00 0.89 0.74 95 1013.1
20260507001523 43 280 4.0 7.0 0.00 0.89 0.74 95 1013.0
20260507001022 43 6 2.0 7.0 0.00 0.89 0.74 95 1012.6
20260507000522 43 282 0.0 6.0 0.00 0.90 0.74 95 1012.8
20260507000024 43 347 2.0 9.0 0.00 0.90 0.74 95 1012.8
20260506235522 43 324 0.0 9.0 0.00 0.91 0.74 95 1012.8
20260506235021 43 349 3.0 9.0 0.00 0.91 0.74 94 1012.6
20260506234521 43 353 3.0 9.0 0.00 0.91 0.74 94 1012.4
20260506234021 43 350 2.0 9.0 0.00 0.92 0.74 94 1012.5
20260506233521 43 338 6.0 10.0 0.00 0.92 0.74 95 1012.3
20260506233021 43 289 4.0 10.0 0.00 0.92 0.74 95 1012.3
20260506232520 43 354 5.0 11.0 0.00 0.92 0.74 95 1012.3
20260506232236 43 354 2.0 11.0 0.00 0.93 0.74 94 1012.3
20260506231520 43 297 3.0 11.0 0.00 0.94 0.74 94 1012.4
20260506231241 43 338 7.0 10.0 0.00 0.94 0.74 94 1012.1
20260506230743 43 4 5.0 12.0 0.00 0.95 0.74 95 1012.2
20260506230019 43 334 5.0 13.0 0.00 0.97 0.74 95 1012.2
20260506225519 44 0 3.0 17.0 0.00 0.98 0.74 95 1012.0
20260506225019 44 335 6.0 17.0 0.00 0.99 0.74 94 1011.8
20260506224519 44 348 11.0 17.0 0.00 1.00 0.74 93 1011.9
20260506224018 45 327 12.0 18.0 0.00 1.01 0.74 94 1011.9
20260506223518 45 297 11.0 18.0 0.00 1.02 0.74 94 1011.4
20260506223018 46 250 5.0 16.0 0.00 1.03 0.74 93 1011.4
20260506222518 47 274 7.0 16.0 0.00 1.04 0.74 92 1011.2
20260506222018 47 259 7.0 13.0 0.00 1.05 0.74 90 1011.2
20260506221518 47 288 3.0 13.0 0.00 1.05 0.74 89 1011.0
20260506221018 47 288 7.0 23.0 0.00 1.06 0.74 89 1011.0
20260506220517 48 195 3.0 23.0 0.00 1.07 0.74 86 1010.9
20260506220243 49 247 4.0 14.0 0.00 1.07 0.74 83 1010.9
20260506215517 50 219 4.0 15.0 0.00 1.08 0.74 80 1010.7
20260506215017 50 194 2.0 15.0 0.00 1.08 0.74 80 1010.6
20260506214516 50 200 2.0 8.0 0.00 1.10 0.74 84 1010.7
20260506214016 50 217 7.0 8.0 0.00 1.12 0.74 85 1010.5
20260506213516 49 167 2.0 6.0 0.00 1.13 0.74 84 1010.2
20260506213016 49 206 3.0 6.0 0.00 1.15 0.74 85 1010.4
20260506212515 49 177 3.0 6.0 0.00 1.18 0.74 86 1010.5
20260506212015 49 168 5.0 5.0 0.00 1.19 0.74 86 1010.3
20260506211741 49 179 2.0 5.0 0.00 1.20 0.74 87 1010.3
20260506211015 49 184 4.0 5.0 0.00 1.20 0.74 86 1010.4
20260506210734 49 211 3.0 5.0 0.00 1.20 0.74 86 1010.4
20260506210014 49 169 2.0 5.0 0.00 1.20 0.74 86 1010.5
20260506205514 49 197 3.0 5.0 0.00 1.20 0.74 85 1010.5
20260506205014 49 214 2.0 5.0 0.00 1.20 0.74 85 1010.4
20260506204513 49 129 3.0 5.0 0.00 1.20 0.74 85 1010.5
20260506204013 49 139 1.0 4.0 0.00 1.20 0.74 85 1010.4
20260506203514 49 167 0.0 4.0 0.00 1.20 0.74 85 1010.5
20260506203014 49 126 2.0 5.0 0.00 1.20 0.74 84 1010.5
20260506202513 49 198 2.0 6.0 0.00 1.20 0.74 87 1010.3
20260506202235 48 173 4.0 6.0 0.00 1.20 0.74 86 1010.5
20260506201737 49 151 4.0 5.0 0.00 1.20 0.74 86 1010.6
20260506201012 48 138 2.0 6.0 0.00 1.20 0.74 86 1010.7
20260506200512 49 180 3.0 6.0 0.00 1.20 0.74 88 1010.7
20260506200012 49 232 2.0 6.0 0.00 1.20 0.74 88 1010.7
20260506195511 49 150 3.0 6.0 0.00 1.20 0.74 85 1010.7
20260506195241 49 173 2.0 6.0 0.00 1.20 0.74 87 1010.6
20260506194511 49 184 5.0 5.0 0.00 1.20 0.74 89 1010.6
20260506194011 48 274 1.0 3.0 0.00 1.20 0.74 90 1010.5
20260506193511 48 206 2.0 4.0 0.00 1.20 0.74 90 1010.8
20260506193217 47 133 2.0 4.0 0.00 1.20 0.74 93 1010.6
20260506193101 47 152 2.0 4.0 0.00 1.20 0.74 91 1010.7
20260506192010 46 127 3.0 6.0 0.00 1.20 0.74 93 1010.5
20260506191510 46 81 2.0 6.0 0.00 1.20 0.74 94 1010.7
20260506191010 46 99 0.0 7.0 0.00 1.20 0.74 96 1010.4
20260506190736 45 71 5.0 7.0 0.00 1.20 0.74 95 1010.4
20260506190009 46 47 3.0 6.0 0.00 1.20 0.74 95 1010.7
20260506185509 46 61 3.0 5.0 0.00 1.20 0.74 95 1010.6
20260506185009 45 73 2.0 5.0 0.00 1.20 0.74 94 1010.7
20260506184509 46 105 3.0 5.0 0.00 1.20 0.74 97 1010.8
20260506184009 45 31 2.0 5.0 0.00 1.20 0.74 96 1010.7
20260506183509 45 27 3.0 5.0 0.00 1.20 0.74 96 1010.9
20260506183235 45 6 2.0 6.0 0.00 1.20 0.74 97 1010.8
20260506182509 45 76 2.0 6.0 0.00 1.20 0.74 96 1010.6
20260506182008 45 64 5.0 5.0 0.00 1.20 0.74 96 1010.8
20260506181508 45 355 2.0 6.0 0.00 1.20 0.74 97 1010.8
20260506181007 45 319 2.0 6.0 0.00 1.20 0.74 96 1010.7
20260506180508 45 348 4.0 6.0 0.00 1.20 0.74 96 1010.8
20260506180007 45 351 2.0 6.0 0.00 1.20 0.74 97 1010.6
20260506175507 45 65 3.0 6.0 0.00 1.20 0.74 96 1010.6
20260506175007 45 20 4.0 6.0 0.00 1.20 0.74 96 1010.7
20260506174507 45 37 4.0 6.0 0.00 1.20 0.74 95 1010.8
20260506174006 45 316 1.0 3.0 0.00 1.20 0.74 93 1010.7
20260506173506 45 10 2.0 4.0 0.00 1.20 0.74 94 1010.5
20260506173006 45 310 2.0 4.0 0.00 1.20 0.74 93 1010.7
20260506172506 45 23 2.0 4.0 0.00 1.20 0.74 94 1010.8
20260506172006 45 356 3.0 4.0 0.00 1.20 0.74 93 1010.6
20260506171726 45 6 4.0 5.0 0.00 1.20 0.74 94 1010.4
20260506171006 45 48 2.0 5.0 0.00 1.20 0.74 93 1010.4
20260506170505 45 11 2.0 5.0 0.00 1.20 0.74 92 1010.5
20260506170005 45 342 2.0 5.0 0.00 1.20 0.74 93 1010.1
20260506165505 45 316 3.0 5.0 0.00 1.20 0.74 92 1010.6
20260506165005 45 347 2.0 5.0 0.00 1.20 0.74 94 1010.2
20260506164504 45 13 3.0 4.0 0.00 1.20 0.74 92 1010.0
20260506164004 45 2 1.0 6.0 0.00 1.20 0.74 93 1010.3
20260506163946 45 351 0.0 6.0 0.00 1.20 0.74 94 1010.2
20260506163004 45 61 5.0 6.0 0.00 1.20 0.74 93 1010.4
20260506162503 45 49 2.0 6.0 0.00 1.20 0.74 92 1010.4
20260506162235 45 65 4.0 6.0 0.00 1.20 0.74 93 1010.2
20260506161726 45 349 3.0 6.0 0.00 1.20 0.74 93 1010.2
20260506161443 45 2 1.0 5.0 0.00 1.20 0.74 95 1010.3
20260506160502 45 8 3.0 5.0 0.00 1.20 0.74 93 1010.2
20260506160002 45 64 3.0 6.0 0.00 1.20 0.74 93 1010.3
20260506155503 45 36 3.0 6.0 0.00 1.20 0.74 93 1010.3
20260506155001 45 75 5.0 6.0 0.00 1.20 0.74 95 1010.1
20260506154501 45 64 4.0 6.0 0.00 1.20 0.74 95 1010.1
20260506154002 45 50 4.0 6.0 0.00 1.20 0.74 95 1010.1
20260506153501 45 25 2.0 6.0 0.00 1.20 0.74 94 1010.1
20260506153001 45 31 2.0 7.0 0.00 1.20 0.74 96 1010.2
20260506152500 44 12 4.0 7.0 0.00 1.20 0.74 95 1010.1
20260506152000 44 43 4.0 7.0 0.00 1.20 0.74 96 1010.3
20260506151500 44 54 2.0 7.0 0.01 1.20 0.74 95 1010.0
20260506151000 44 31 2.0 7.0 0.01 1.20 0.74 96 1010.0
20260506150459 44 59 2.0 7.0 0.01 1.20 0.74 97 1010.0
20260506150000 44 35 3.0 7.0 0.01 1.20 0.74 97 1009.8
20260506145459 44 71 4.0 7.0 0.01 1.20 0.74 97 1009.9
20260506145440 44 67 5.0 8.0 0.02 1.20 0.74 96 1010.1
20260506144459 44 48 4.0 8.0 0.02 1.20 0.74 96 1009.9
20260506143959 44 64 4.0 7.0 0.02 1.20 0.74 96 1009.9
20260506143459 44 80 3.0 8.0 0.02 1.20 0.74 97 1009.8
20260506142958 44 49 4.0 8.0 0.02 1.20 0.74 97 1009.8
20260506142458 44 57 7.0 7.0 0.02 1.20 0.74 97 1009.7
20260506141957 44 54 7.0 9.0 0.02 1.20 0.74 97 1009.6
20260506141457 44 124 3.0 9.0 0.02 1.20 0.73 97 1009.6
20260506141226 44 74 5.0 6.0 0.03 1.20 0.73 97 1009.9
20260506140457 44 73 4.0 10.0 0.03 1.20 0.73 98 1009.8
20260506135957 43 67 0.0 10.0 0.04 1.19 0.73 97 1009.5
20260506135456 43 67 6.0 9.0 0.04 1.19 0.73 98 1009.5
20260506134956 44 84 2.0 9.0 0.04 1.19 0.72 98 1009.5
20260506134716 44 75 3.0 6.0 0.04 1.19 0.72 99 1009.5
20260506133956 44 49 2.0 7.0 0.04 1.19 0.72 99 1009.3
20260506133455 44 79 3.0 7.0 0.04 1.19 0.72 99 1009.4
20260506132956 44 82 6.0 7.0 0.04 1.18 0.72 99 1009.7
20260506132456 44 97 2.0 9.0 0.05 1.18 0.72 98 1009.6
20260506131956 43 80 4.0 9.0 0.04 1.18 0.71 98 1009.7
20260506131455 43 54 4.0 8.0 0.04 1.17 0.71 98 1009.5
20260506130955 43 115 4.0 11.0 0.04 1.17 0.70 98 1009.5
20260506130455 43 76 4.0 11.0 0.05 1.17 0.70 99 1009.1
20260506125954 43 67 7.0 10.0 0.04 1.16 0.69 99 1009.4
20260506125454 43 54 6.0 8.0 0.04 1.15 0.69 99 1009.3
20260506124954 43 65 2.0 8.0 0.04 1.15 0.69 98 1009.4
20260506124454 43 81 3.0 9.0 0.04 1.15 0.68 98 1009.4
20260506123954 43 124 2.0 9.0 0.04 1.14 0.68 98 1009.4
20260506123927 43 83 6.0 11.0 0.04 1.14 0.67 98 1009.3
20260506123545 43 88 3.0 11.0 0.04 1.14 0.68 98 1009.3
20260506122453 43 70 4.0 10.0 0.04 1.13 0.67 99 1009.1
20260506121952 43 70 3.0 10.0 0.04 1.13 0.67 99 1009.2
20260506121452 43 65 3.0 10.0 0.04 1.13 0.66 98 1008.9
20260506120953 43 59 6.0 10.0 0.04 1.13 0.66 98 1009.0
20260506120715 43 63 7.0 11.0 0.04 1.12 0.65 99 1009.2
20260506115952 43 59 3.0 11.0 0.05 1.12 0.65 99 1008.7
20260506115451 43 75 5.0 12.0 0.04 1.11 0.65 99 1009.1
20260506114952 43 60 5.0 12.0 0.04 1.11 0.65 99 1009.2
20260506114451 43 82 5.0 9.0 0.04 1.11 0.64 99 1009.2
20260506113951 43 94 3.0 8.0 0.04 1.10 0.64 99 1009.5
20260506113709 43 96 2.0 8.0 0.04 1.10 0.64 99 1009.4
20260506112951 43 92 4.0 7.0 0.05 1.10 0.63 99 1009.3
20260506112451 43 80 3.0 9.0 0.05 1.09 0.63 99 1009.5
20260506112221 43 93 3.0 9.0 0.05 1.09 0.63 99 1009.2
20260506111450 43 105 3.0 10.0 0.05 1.08 0.62 99 1009.3
20260506110950 43 82 8.0 11.0 0.05 1.08 0.61 99 1008.9
20260506110450 43 60 8.0 12.0 0.05 1.07 0.61 99 1009.1
20260506110433 43 62 4.0 12.0 0.05 1.07 0.61 99 1009.1
20260506105450 43 31 4.0 12.0 0.06 1.07 0.61 99 1008.7